Location: Haliburton Scout Reserve
(45.0900°N, 78.3200°W)
Time: 19:45:42
(UTC-05:00)

Courier 1B - Pass Details

Date: 03 December 2023
Orbit: 962 x 1209 km, 28.3° (Epoch: 23 February)

Event Time Altitude Azimuth Distance (km) Brightness Sun altitude
Rises 09:23:25 0° 208° (SSW) 3,735 10.9 13.6°
Reaches altitude 10° 09:29:30 10° 166° (SSE) 2,727 11.4 14.2°
Maximum altitude 09:30:07 10° 161° (SSE) 2,713 11.7 14.3°
Drops below altitude 10° 09:30:43 10° 155° (SSE) 2,718 12.0 14.4°
Sets 09:36:39 0° 114° (ESE) 3,637 11.5 15.0°
